Year,Month,Day,Hour,Minute,Value (Times are PST for temperature in C)
2017,05,25,00,00,11.60
2017,05,25,00,01,11.60
2017,05,25,00,02,11.60
2017,05,25,00,03,11.60
2017,05,25,00,04,11.60
2017,05,25,00,05,11.60
2017,05,25,00,06,11.60
2017,05,25,00,07,11.50
2017,05,25,00,08,11.50
2017,05,25,00,09,11.50
2017,05,25,00,10,11.50
2017,05,25,00,11,11.40
2017,05,25,00,12,11.40
2017,05,25,00,13,11.40
2017,05,25,00,14,11.40
2017,05,25,00,15,11.40
2017,05,25,00,16,11.30
2017,05,25,00,17,11.30
2017,05,25,00,18,11.30
2017,05,25,00,19,11.30
2017,05,25,00,20,11.20
2017,05,25,00,21,11.20
2017,05,25,00,22,11.20
2017,05,25,00,23,11.20
2017,05,25,00,24,11.20
2017,05,25,00,25,11.20
2017,05,25,00,26,11.10
2017,05,25,00,27,11.10
2017,05,25,00,28,11.10
2017,05,25,00,29,11.10
2017,05,25,00,30,11.10
2017,05,25,00,31,11.10
2017,05,25,00,32,11.00
2017,05,25,00,33,11.00
2017,05,25,00,34,11.00
2017,05,25,00,35,11.00
2017,05,25,00,36,10.90
2017,05,25,00,37,10.90
2017,05,25,00,38,10.90
2017,05,25,00,39,10.90
2017,05,25,00,40,10.90
2017,05,25,00,41,10.90
2017,05,25,00,42,10.80
2017,05,25,00,43,10.80
2017,05,25,00,44,10.80
2017,05,25,00,45,10.80
2017,05,25,00,46,10.80
2017,05,25,00,47,10.80
2017,05,25,00,48,10.80
2017,05,25,00,49,10.80
2017,05,25,00,50,10.80
2017,05,25,00,51,10.80
2017,05,25,00,52,10.80
2017,05,25,00,53,10.80
2017,05,25,00,54,10.80
2017,05,25,00,55,10.80
2017,05,25,00,56,10.80
2017,05,25,00,57,10.80
2017,05,25,00,58,10.80
2017,05,25,00,59,10.80
2017,05,25,01,00,10.80
2017,05,25,01,01,10.80
2017,05,25,01,02,10.80
2017,05,25,01,03,10.80
2017,05,25,01,04,10.80
2017,05,25,01,05,10.80
2017,05,25,01,06,10.80
2017,05,25,01,07,10.80
2017,05,25,01,08,10.80
2017,05,25,01,09,10.80
2017,05,25,01,10,10.80
2017,05,25,01,11,10.90
2017,05,25,01,12,10.90
2017,05,25,01,13,10.90
2017,05,25,01,14,10.90
2017,05,25,01,15,10.90
2017,05,25,01,16,10.90
2017,05,25,01,17,10.90
2017,05,25,01,18,10.90
2017,05,25,01,19,10.90
2017,05,25,01,20,10.90
2017,05,25,01,21,10.90
2017,05,25,01,22,10.90
2017,05,25,01,23,10.90
2017,05,25,01,24,10.90
2017,05,25,01,25,10.90
2017,05,25,01,26,10.90
2017,05,25,01,27,10.90
2017,05,25,01,28,10.90
2017,05,25,01,29,10.90
2017,05,25,01,30,10.90
2017,05,25,01,31,10.90
2017,05,25,01,32,10.90
2017,05,25,01,33,10.90
2017,05,25,01,34,10.90
2017,05,25,01,35,10.90
2017,05,25,01,36,10.90
2017,05,25,01,37,10.90
2017,05,25,01,38,11.00
2017,05,25,01,39,11.00
2017,05,25,01,40,10.90
2017,05,25,01,41,10.90
2017,05,25,01,42,10.90
2017,05,25,01,43,10.90
2017,05,25,01,44,10.90
2017,05,25,01,45,10.90
2017,05,25,01,46,10.90
2017,05,25,01,47,10.90
2017,05,25,01,48,10.90
2017,05,25,01,49,10.90
2017,05,25,01,50,10.90
2017,05,25,01,51,10.90
2017,05,25,01,52,10.90
2017,05,25,01,53,10.90
2017,05,25,01,54,10.90
2017,05,25,01,55,10.90
2017,05,25,01,56,10.90
2017,05,25,01,57,10.90
2017,05,25,01,58,10.90
2017,05,25,01,59,10.90
2017,05,25,02,00,10.90
2017,05,25,02,01,10.90
2017,05,25,02,02,10.90
2017,05,25,02,03,10.90
2017,05,25,02,04,10.90
2017,05,25,02,05,10.90
2017,05,25,02,06,11.00
2017,05,25,02,07,11.00
2017,05,25,02,08,11.00
2017,05,25,02,09,11.00
2017,05,25,02,10,11.00
2017,05,25,02,11,11.00
2017,05,25,02,12,11.00
2017,05,25,02,13,11.00
2017,05,25,02,14,11.00
2017,05,25,02,15,11.00
2017,05,25,02,16,11.00
2017,05,25,02,17,11.00
2017,05,25,02,18,11.00
2017,05,25,02,19,11.00
2017,05,25,02,20,11.00
2017,05,25,02,21,11.00
2017,05,25,02,22,11.00
2017,05,25,02,23,11.00
2017,05,25,02,24,11.00
2017,05,25,02,25,11.00
2017,05,25,02,26,11.00
2017,05,25,02,27,11.00
2017,05,25,02,28,11.00
2017,05,25,02,29,11.00
2017,05,25,02,30,10.90
2017,05,25,02,31,10.90
2017,05,25,02,32,10.90
2017,05,25,02,33,10.90
2017,05,25,02,34,10.90
2017,05,25,02,35,10.90
2017,05,25,02,36,10.90
2017,05,25,02,37,10.90
2017,05,25,02,38,10.90
2017,05,25,02,39,10.90
2017,05,25,02,40,10.80
2017,05,25,02,41,10.80
2017,05,25,02,42,10.80
2017,05,25,02,43,10.80
2017,05,25,02,44,10.80
2017,05,25,02,45,10.80
2017,05,25,02,46,10.80
2017,05,25,02,47,10.80
2017,05,25,02,48,10.80
2017,05,25,02,49,10.80
2017,05,25,02,50,10.80
2017,05,25,02,51,10.80
2017,05,25,02,52,10.80
2017,05,25,02,53,10.80
2017,05,25,02,54,10.80
2017,05,25,02,55,10.80
2017,05,25,02,56,10.80
2017,05,25,02,57,10.80
2017,05,25,02,58,10.80
2017,05,25,02,59,10.80
2017,05,25,03,00,10.70
2017,05,25,03,01,10.70
2017,05,25,03,02,10.70
2017,05,25,03,06,10.70
2017,05,25,03,07,10.70
2017,05,25,03,08,10.70
2017,05,25,03,09,10.70
2017,05,25,03,10,10.60
2017,05,25,03,11,10.60
2017,05,25,03,12,10.60
2017,05,25,03,13,10.60
2017,05,25,03,14,10.60
2017,05,25,03,15,10.60
2017,05,25,03,16,10.60
2017,05,25,03,17,10.60
2017,05,25,03,18,10.60
2017,05,25,03,19,10.50
2017,05,25,03,20,10.50
2017,05,25,03,21,10.50
2017,05,25,03,22,10.40
2017,05,25,03,23,10.40
2017,05,25,03,24,10.40
2017,05,25,03,25,10.40
2017,05,25,03,26,10.30
2017,05,25,03,27,10.30
2017,05,25,03,28,10.30
2017,05,25,03,29,10.30
2017,05,25,03,30,10.30
2017,05,25,03,31,10.20
2017,05,25,03,32,10.20
2017,05,25,03,33,10.20
2017,05,25,03,34,10.20
2017,05,25,03,35,10.20
2017,05,25,03,36,10.20
2017,05,25,03,37,10.20
2017,05,25,03,38,10.20
2017,05,25,03,39,10.20
2017,05,25,03,40,10.10
2017,05,25,03,41,10.10
2017,05,25,03,42,10.10
2017,05,25,03,43,10.10
2017,05,25,03,44,10.10
2017,05,25,03,45,10.10
2017,05,25,03,46,10.10
2017,05,25,03,47,10.10
2017,05,25,03,48,10.00
2017,05,25,03,49,10.00
2017,05,25,03,50,10.00
2017,05,25,03,51,10.00
2017,05,25,03,52,10.00
2017,05,25,03,53,10.00
2017,05,25,03,54,10.10
2017,05,25,03,55,10.10
2017,05,25,03,56,10.10
2017,05,25,03,57,10.10
2017,05,25,03,58,10.10
2017,05,25,03,59,10.10
2017,05,25,04,00,10.10
2017,05,25,04,01,10.10
2017,05,25,04,02,10.10
2017,05,25,04,03,10.10
2017,05,25,04,04,10.10
2017,05,25,04,05,10.00
2017,05,25,04,06,10.00
2017,05,25,04,07,10.00
2017,05,25,04,08,10.00
2017,05,25,04,09,10.00
2017,05,25,04,10,10.00
2017,05,25,04,11,10.00
2017,05,25,04,12,10.00
2017,05,25,04,13,10.00
2017,05,25,04,14,10.00
2017,05,25,04,15,10.00
2017,05,25,04,16,10.00
2017,05,25,04,17,10.00
2017,05,25,04,18,10.00
2017,05,25,04,19,10.00
2017,05,25,04,20,10.00
2017,05,25,04,21,10.00
2017,05,25,04,22,10.00
2017,05,25,04,23,10.00
2017,05,25,04,24,10.00
2017,05,25,04,25,10.00
2017,05,25,04,26,10.00
2017,05,25,04,27,9.90
2017,05,25,04,28,9.90
2017,05,25,04,29,9.90
2017,05,25,04,30,9.90
2017,05,25,04,31,9.90
2017,05,25,04,32,9.90
2017,05,25,04,33,9.90
2017,05,25,04,34,9.90
2017,05,25,04,35,9.90
2017,05,25,04,36,9.90
2017,05,25,04,37,9.90
2017,05,25,04,38,9.90
2017,05,25,04,39,9.90
2017,05,25,04,40,9.90
2017,05,25,04,41,9.90
2017,05,25,04,42,9.90
2017,05,25,04,43,9.90
2017,05,25,04,44,9.90
2017,05,25,04,45,9.90
2017,05,25,04,46,9.90
2017,05,25,04,47,9.90
2017,05,25,04,48,9.90
2017,05,25,04,49,9.90
2017,05,25,04,50,9.90
2017,05,25,04,51,9.90
2017,05,25,04,52,9.90
2017,05,25,04,53,9.90
2017,05,25,04,54,9.90
2017,05,25,04,55,9.90
2017,05,25,04,56,9.90
2017,05,25,04,57,9.90
2017,05,25,04,58,9.90
2017,05,25,04,59,9.90
2017,05,25,05,00,9.90
2017,05,25,05,01,9.90
2017,05,25,05,02,9.90
2017,05,25,05,03,9.90
2017,05,25,05,04,9.90
2017,05,25,05,05,9.90
2017,05,25,05,06,9.90
2017,05,25,05,07,9.90
2017,05,25,05,08,9.90
2017,05,25,05,09,9.90
2017,05,25,05,10,9.90
2017,05,25,05,11,9.90
2017,05,25,05,12,9.90
2017,05,25,05,13,9.90
2017,05,25,05,14,9.90
2017,05,25,05,15,9.90
2017,05,25,05,16,9.90
2017,05,25,05,17,9.90
2017,05,25,05,18,9.90
2017,05,25,05,19,10.00
2017,05,25,05,20,10.00
2017,05,25,05,21,10.00
2017,05,25,05,22,10.00
2017,05,25,05,23,10.10
2017,05,25,05,24,10.10
2017,05,25,05,25,10.10
2017,05,25,05,26,10.10
2017,05,25,05,27,10.10
2017,05,25,05,28,10.10
2017,05,25,05,29,10.10
2017,05,25,05,30,10.10
2017,05,25,05,31,10.20
2017,05,25,05,32,10.20
2017,05,25,05,33,10.20
2017,05,25,05,34,10.20
2017,05,25,05,35,10.20
2017,05,25,05,36,10.20
2017,05,25,05,37,10.20
2017,05,25,05,38,10.20
2017,05,25,05,39,10.30
2017,05,25,05,40,10.30
2017,05,25,05,41,10.30
2017,05,25,05,42,10.30
2017,05,25,05,43,10.30
2017,05,25,05,44,10.30
2017,05,25,05,45,10.30
2017,05,25,05,46,10.30
2017,05,25,05,47,10.30
2017,05,25,05,48,10.30
2017,05,25,05,49,10.30
2017,05,25,05,50,10.30
2017,05,25,05,51,10.30
2017,05,25,05,52,10.30
2017,05,25,05,53,10.30
2017,05,25,05,54,10.40
2017,05,25,05,55,10.40
2017,05,25,05,56,10.40
2017,05,25,05,57,10.40
2017,05,25,05,58,10.40
2017,05,25,05,59,10.40
2017,05,25,06,00,10.40
2017,05,25,06,01,10.40
2017,05,25,06,02,10.50
2017,05,25,06,03,10.50
2017,05,25,06,04,10.50
2017,05,25,06,05,10.50
2017,05,25,06,06,10.50
2017,05,25,06,07,10.50
2017,05,25,06,08,10.50
2017,05,25,06,09,10.50
2017,05,25,06,10,10.50
2017,05,25,06,11,10.50
2017,05,25,06,12,10.50
2017,05,25,06,13,10.60
2017,05,25,06,14,10.60
2017,05,25,06,15,10.60
2017,05,25,06,16,10.60
2017,05,25,06,17,10.60
2017,05,25,06,18,10.60
2017,05,25,06,19,10.60
2017,05,25,06,20,10.60
2017,05,25,06,21,10.60
2017,05,25,06,22,10.60
2017,05,25,06,23,10.60
2017,05,25,06,24,10.60
2017,05,25,06,25,10.70
2017,05,25,06,26,10.70
2017,05,25,06,27,10.70
2017,05,25,06,28,10.70
2017,05,25,06,29,10.70
2017,05,25,06,30,10.80
2017,05,25,06,31,10.80
2017,05,25,06,32,10.80
2017,05,25,06,33,10.80
2017,05,25,06,34,10.80
2017,05,25,06,35,10.80
2017,05,25,06,36,10.90
2017,05,25,06,37,10.90
2017,05,25,06,38,10.90
2017,05,25,06,39,10.90
2017,05,25,06,40,11.00
2017,05,25,06,41,11.00
2017,05,25,06,42,11.00
2017,05,25,06,43,11.00
2017,05,25,06,44,11.00
2017,05,25,06,45,11.00
2017,05,25,06,46,11.00
2017,05,25,06,47,11.10
2017,05,25,06,48,11.10
2017,05,25,06,49,11.10
2017,05,25,06,50,11.10
2017,05,25,06,51,11.10
2017,05,25,06,52,11.10
2017,05,25,06,53,11.10
2017,05,25,06,54,11.10
2017,05,25,06,55,11.10
2017,05,25,06,56,11.10
2017,05,25,06,57,11.10
2017,05,25,06,58,11.20
2017,05,25,06,59,11.20
2017,05,25,07,00,11.20
2017,05,25,07,01,11.20
2017,05,25,07,02,11.30
2017,05,25,07,03,11.30
2017,05,25,07,04,11.30
2017,05,25,07,05,11.40
2017,05,25,07,06,11.40
2017,05,25,07,07,11.50
2017,05,25,07,08,11.50
2017,05,25,07,09,11.60
2017,05,25,07,10,11.60
2017,05,25,07,11,11.70
2017,05,25,07,12,11.70
2017,05,25,07,13,11.80
2017,05,25,07,14,11.80
2017,05,25,07,15,11.80
2017,05,25,07,16,11.90
2017,05,25,07,17,11.90
2017,05,25,07,18,12.00
2017,05,25,07,19,12.00
2017,05,25,07,20,12.00
2017,05,25,07,21,12.10
2017,05,25,07,22,12.10
2017,05,25,07,23,12.10
2017,05,25,07,24,12.10
2017,05,25,07,25,12.20
2017,05,25,07,26,12.20
2017,05,25,07,27,12.20
2017,05,25,07,28,12.20
2017,05,25,07,29,12.20
2017,05,25,07,30,12.20
2017,05,25,07,31,12.20
2017,05,25,07,32,12.20
2017,05,25,07,33,12.20
2017,05,25,07,34,12.30
2017,05,25,07,35,12.30
2017,05,25,07,36,12.30
2017,05,25,07,37,12.30
2017,05,25,07,38,12.30
2017,05,25,07,39,12.30
2017,05,25,07,40,12.30
2017,05,25,07,41,12.30
2017,05,25,07,42,12.30
2017,05,25,07,43,12.40
2017,05,25,07,44,12.40
2017,05,25,07,45,12.40
2017,05,25,07,46,12.40
2017,05,25,07,47,12.50
2017,05,25,07,48,12.50
2017,05,25,07,49,12.50
2017,05,25,07,50,12.60
2017,05,25,07,51,12.60
2017,05,25,07,52,12.60
2017,05,25,07,53,12.60
2017,05,25,07,54,12.60
2017,05,25,07,55,12.60
2017,05,25,07,56,12.60
2017,05,25,07,57,12.60
2017,05,25,07,58,12.60
2017,05,25,07,59,12.60
2017,05,25,08,00,12.70
2017,05,25,08,01,12.70
2017,05,25,08,02,12.70
2017,05,25,08,03,12.70
2017,05,25,08,04,12.70
2017,05,25,08,05,12.80
2017,05,25,08,06,12.80
2017,05,25,08,07,12.80
2017,05,25,08,08,12.90
2017,05,25,08,09,12.90
2017,05,25,08,10,12.90
2017,05,25,08,11,12.90
2017,05,25,08,12,12.90
2017,05,25,08,13,12.90
2017,05,25,08,14,12.90
2017,05,25,08,15,12.90
2017,05,25,08,16,12.90
2017,05,25,08,17,13.00
2017,05,25,08,18,13.00
2017,05,25,08,19,13.10
2017,05,25,08,20,13.10
2017,05,25,08,21,13.10
2017,05,25,08,22,13.20
2017,05,25,08,23,13.20
2017,05,25,08,24,13.30
2017,05,25,08,25,13.40
2017,05,25,08,26,13.50
2017,05,25,08,27,13.50
2017,05,25,08,28,13.60
2017,05,25,08,29,13.60
2017,05,25,08,30,13.60
2017,05,25,08,31,13.60
2017,05,25,08,32,13.60
2017,05,25,08,33,13.60
2017,05,25,08,34,13.60
2017,05,25,08,35,13.60
2017,05,25,08,36,13.60
2017,05,25,08,37,13.60
2017,05,25,08,38,13.60
2017,05,25,08,39,13.70
2017,05,25,08,40,13.70
2017,05,25,08,41,13.70
2017,05,25,08,42,13.70
2017,05,25,08,43,13.80
2017,05,25,08,44,13.80
2017,05,25,08,45,13.80
2017,05,25,08,46,13.90
2017,05,25,08,47,13.90
2017,05,25,08,48,13.90
2017,05,25,08,49,13.80
2017,05,25,08,50,13.80
2017,05,25,08,51,13.80
2017,05,25,08,52,13.80
2017,05,25,08,53,13.80
2017,05,25,08,54,13.90
2017,05,25,08,55,13.90
2017,05,25,08,56,13.90
2017,05,25,08,57,13.90
2017,05,25,08,58,14.00
2017,05,25,08,59,14.00
2017,05,25,09,00,13.90
2017,05,25,09,01,13.90
2017,05,25,09,02,13.90
2017,05,25,09,03,13.90
2017,05,25,09,04,13.90
2017,05,25,09,05,13.90
2017,05,25,09,06,13.90
2017,05,25,09,07,14.00
2017,05,25,09,08,14.00
2017,05,25,09,09,14.10
2017,05,25,09,10,14.10
2017,05,25,09,11,14.10
2017,05,25,09,12,14.20
2017,05,25,09,13,14.20
2017,05,25,09,14,14.30
2017,05,25,09,15,14.40
2017,05,25,09,16,14.40
2017,05,25,09,17,14.50
2017,05,25,09,18,14.60
2017,05,25,09,19,14.70
2017,05,25,09,20,14.70
2017,05,25,09,21,14.70
2017,05,25,09,22,14.70
2017,05,25,09,23,14.70
2017,05,25,09,24,14.70
2017,05,25,09,25,14.70
2017,05,25,09,26,14.80
2017,05,25,09,27,14.80
2017,05,25,09,28,14.90
2017,05,25,09,29,14.90
2017,05,25,09,30,14.90
2017,05,25,09,31,14.90
2017,05,25,09,32,15.00
2017,05,25,09,33,15.00
2017,05,25,09,34,15.10
2017,05,25,09,35,15.10
2017,05,25,09,36,15.10
2017,05,25,09,37,15.20
2017,05,25,09,38,15.20
2017,05,25,09,39,15.20
2017,05,25,09,40,15.20
2017,05,25,09,41,15.20
2017,05,25,09,42,15.20
2017,05,25,09,43,15.30
2017,05,25,09,44,15.30
2017,05,25,09,45,15.30
2017,05,25,09,46,15.40
2017,05,25,09,47,15.50
2017,05,25,09,48,15.60
2017,05,25,09,49,15.80
2017,05,25,09,50,15.90
2017,05,25,09,51,16.00
2017,05,25,09,52,16.10
2017,05,25,09,53,16.10
2017,05,25,09,54,16.20
2017,05,25,09,55,16.20
2017,05,25,09,56,16.10
2017,05,25,09,57,16.10
2017,05,25,09,58,16.10
2017,05,25,09,59,16.20
2017,05,25,10,00,16.20
2017,05,25,10,01,16.20
2017,05,25,10,02,16.30
2017,05,25,10,03,16.40
2017,05,25,10,04,16.60
2017,05,25,10,05,16.70
2017,05,25,10,06,16.70
2017,05,25,10,07,16.80
2017,05,25,10,08,16.80
2017,05,25,10,09,16.80
2017,05,25,10,10,16.80
2017,05,25,10,11,16.80
2017,05,25,10,12,16.70
2017,05,25,10,13,16.60
2017,05,25,10,14,16.60
2017,05,25,10,15,16.50
2017,05,25,10,16,16.40
2017,05,25,10,17,16.40
2017,05,25,10,18,16.40
2017,05,25,10,19,16.40
2017,05,25,10,20,16.50
2017,05,25,10,21,16.60
2017,05,25,10,22,16.60
2017,05,25,10,23,16.70
2017,05,25,10,24,16.80
2017,05,25,10,25,16.90
2017,05,25,10,26,16.90
2017,05,25,10,27,17.00
2017,05,25,10,28,17.10
2017,05,25,10,29,17.10
2017,05,25,10,30,17.10
2017,05,25,10,31,17.10
2017,05,25,10,32,17.00
2017,05,25,10,33,17.00
2017,05,25,10,34,17.00
2017,05,25,10,35,17.10
2017,05,25,10,36,17.10
2017,05,25,10,37,17.10
2017,05,25,10,38,17.10
2017,05,25,10,39,17.20
2017,05,25,10,40,17.20
2017,05,25,10,41,17.20
2017,05,25,10,42,17.20
2017,05,25,10,43,17.30
2017,05,25,10,44,17.30
2017,05,25,10,45,17.30
2017,05,25,10,46,17.30
2017,05,25,10,47,17.30
2017,05,25,10,48,17.20
2017,05,25,10,49,17.20
2017,05,25,10,50,17.20
2017,05,25,10,51,17.20
2017,05,25,10,52,17.30
2017,05,25,10,53,17.40
2017,05,25,10,54,17.50
2017,05,25,10,55,17.60
2017,05,25,10,56,17.60
2017,05,25,10,57,17.60
2017,05,25,10,58,17.60
2017,05,25,10,59,17.60
2017,05,25,11,00,17.60
2017,05,25,11,01,17.60
2017,05,25,11,02,17.60
2017,05,25,11,03,17.70
2017,05,25,11,04,17.70
2017,05,25,11,05,17.70
2017,05,25,11,06,17.70
2017,05,25,11,07,17.60
2017,05,25,11,08,17.60
2017,05,25,11,09,17.60
2017,05,25,11,10,17.70
2017,05,25,11,11,17.80
2017,05,25,11,12,17.90
2017,05,25,11,13,18.00
2017,05,25,11,14,18.00
2017,05,25,11,15,18.10
2017,05,25,11,16,18.10
2017,05,25,11,17,18.00
2017,05,25,11,18,17.90
2017,05,25,11,19,17.90
2017,05,25,11,20,17.80
2017,05,25,11,21,17.80
2017,05,25,11,22,17.90
2017,05,25,11,23,18.00
2017,05,25,11,24,18.00
2017,05,25,11,25,17.90
2017,05,25,11,26,17.90
2017,05,25,11,27,18.00
2017,05,25,11,28,18.10
2017,05,25,11,29,18.10
2017,05,25,11,30,18.20
2017,05,25,11,31,18.20
2017,05,25,11,32,18.30
2017,05,25,11,33,18.30
2017,05,25,11,34,18.30
2017,05,25,11,35,18.30
2017,05,25,11,36,18.20
2017,05,25,11,37,18.20
2017,05,25,11,38,18.20
2017,05,25,11,39,18.20
2017,05,25,11,40,18.20
2017,05,25,11,41,18.20
2017,05,25,11,42,18.20
2017,05,25,11,43,18.20
2017,05,25,11,44,18.30
2017,05,25,11,45,18.30
2017,05,25,11,46,18.30
2017,05,25,11,47,18.20
2017,05,25,11,48,18.20
2017,05,25,11,49,18.10
2017,05,25,11,50,18.20
2017,05,25,11,51,18.20
2017,05,25,11,52,18.30
2017,05,25,11,53,18.30
2017,05,25,11,54,18.30
2017,05,25,11,55,18.20
2017,05,25,11,56,18.20
2017,05,25,11,57,18.20
2017,05,25,11,58,18.10
2017,05,25,11,59,18.20
2017,05,25,12,00,18.20
2017,05,25,12,01,18.20
2017,05,25,12,02,18.20
2017,05,25,12,03,18.30
2017,05,25,12,04,18.30
2017,05,25,12,05,18.30
2017,05,25,12,06,18.40
2017,05,25,12,07,18.40
2017,05,25,12,08,18.40
2017,05,25,12,09,18.50
2017,05,25,12,10,18.60
2017,05,25,12,11,18.70
2017,05,25,12,12,18.90
2017,05,25,12,13,19.00
2017,05,25,12,14,19.10
2017,05,25,12,15,19.20
2017,05,25,12,16,19.20
2017,05,25,12,17,19.10
2017,05,25,12,18,19.20
2017,05,25,12,19,19.20
2017,05,25,12,20,19.20
2017,05,25,12,21,19.10
2017,05,25,12,22,19.10
2017,05,25,12,23,19.10
2017,05,25,12,24,19.10
2017,05,25,12,25,19.10
2017,05,25,12,26,19.00
2017,05,25,12,27,18.90
2017,05,25,12,28,18.90
2017,05,25,12,29,19.00
2017,05,25,12,30,19.10
2017,05,25,12,31,19.20
2017,05,25,12,32,19.20
2017,05,25,12,33,19.20
2017,05,25,12,34,19.00
2017,05,25,12,35,19.00
2017,05,25,12,36,19.00
2017,05,25,12,37,19.00
2017,05,25,12,38,18.90
2017,05,25,12,39,18.80
2017,05,25,12,40,18.90
2017,05,25,12,41,19.00
2017,05,25,12,42,19.10
2017,05,25,12,43,19.20
2017,05,25,12,44,19.20
2017,05,25,12,45,19.30
2017,05,25,12,46,19.40
2017,05,25,12,47,19.50
2017,05,25,12,48,19.60
2017,05,25,12,49,19.70
2017,05,25,12,50,19.60
2017,05,25,12,51,19.50
2017,05,25,12,52,19.40
2017,05,25,12,53,19.40
2017,05,25,12,54,19.40
2017,05,25,12,55,19.50
2017,05,25,12,56,19.50
2017,05,25,12,57,19.50
2017,05,25,12,58,19.50
2017,05,25,12,59,19.50
2017,05,25,13,00,19.50
2017,05,25,13,01,19.60
2017,05,25,13,02,19.60
2017,05,25,13,03,19.60
2017,05,25,13,04,19.60
2017,05,25,13,05,19.60
2017,05,25,13,06,19.70
2017,05,25,13,07,19.70
2017,05,25,13,08,19.80
2017,05,25,13,09,19.80
2017,05,25,13,10,19.90
2017,05,25,13,11,19.80
2017,05,25,13,12,19.80
2017,05,25,13,13,19.90
2017,05,25,13,14,19.90
2017,05,25,13,15,19.80
2017,05,25,13,16,19.90
2017,05,25,13,17,19.90
2017,05,25,13,18,20.00
2017,05,25,13,19,20.00
2017,05,25,13,20,20.00
2017,05,25,13,21,20.00
2017,05,25,13,22,20.10
2017,05,25,13,23,20.10
2017,05,25,13,24,20.20
2017,05,25,13,25,20.40
2017,05,25,13,26,20.60
2017,05,25,13,27,20.70
2017,05,25,13,28,20.80
2017,05,25,13,29,20.70
2017,05,25,13,30,20.50
2017,05,25,13,31,20.40
2017,05,25,13,32,20.30
2017,05,25,13,33,20.40
2017,05,25,13,34,20.40
2017,05,25,13,35,20.50
2017,05,25,13,36,20.60
2017,05,25,13,37,20.60
2017,05,25,13,38,20.60
2017,05,25,13,39,20.60
2017,05,25,13,40,20.50
2017,05,25,13,41,20.40
2017,05,25,13,42,20.40
2017,05,25,13,43,20.50
2017,05,25,13,44,20.50
2017,05,25,13,45,20.50
2017,05,25,13,46,20.50
2017,05,25,13,47,20.40
2017,05,25,13,48,20.40
2017,05,25,13,49,20.30
2017,05,25,13,50,20.30
2017,05,25,13,51,20.40
2017,05,25,13,52,20.50
2017,05,25,13,53,20.60
2017,05,25,13,54,20.70
2017,05,25,13,55,20.80
2017,05,25,13,56,20.90
2017,05,25,13,57,20.90
2017,05,25,13,58,20.90
2017,05,25,13,59,20.90
2017,05,25,14,00,20.90
2017,05,25,14,01,21.00
2017,05,25,14,02,21.00
2017,05,25,14,03,21.00
2017,05,25,14,04,21.00
2017,05,25,14,05,20.90
2017,05,25,14,06,20.80
2017,05,25,14,07,20.80
2017,05,25,14,08,20.70
2017,05,25,14,09,20.70
2017,05,25,14,10,20.80
2017,05,25,14,11,20.80
2017,05,25,14,12,20.80
2017,05,25,14,13,20.80
2017,05,25,14,14,20.90
2017,05,25,14,15,21.00
2017,05,25,14,16,20.90
2017,05,25,14,17,20.90
2017,05,25,14,18,21.00
2017,05,25,14,19,21.10
2017,05,25,14,20,21.10
2017,05,25,14,21,21.00
2017,05,25,14,22,20.90
2017,05,25,14,23,21.00
2017,05,25,14,24,21.00
2017,05,25,14,25,21.10
2017,05,25,14,26,21.20
2017,05,25,14,27,21.20
2017,05,25,14,28,21.30
2017,05,25,14,29,21.30
2017,05,25,14,30,21.30
2017,05,25,14,31,21.30
2017,05,25,14,32,21.30
2017,05,25,14,33,21.40
2017,05,25,14,34,21.40
2017,05,25,14,35,21.40
2017,05,25,14,36,21.40
2017,05,25,14,37,21.50
2017,05,25,14,38,21.70
2017,05,25,14,39,21.70
2017,05,25,14,40,21.70
2017,05,25,14,41,21.60
2017,05,25,14,42,21.50
2017,05,25,14,43,21.40
2017,05,25,14,44,21.40
2017,05,25,14,45,21.50
2017,05,25,14,46,21.60
2017,05,25,14,47,21.50
2017,05,25,14,48,21.50
2017,05,25,14,49,21.60
2017,05,25,14,50,21.60
2017,05,25,14,51,21.50
2017,05,25,14,52,21.40
2017,05,25,14,53,21.40
2017,05,25,14,54,21.30
2017,05,25,14,55,21.30
2017,05,25,14,56,21.40
2017,05,25,14,57,21.50
2017,05,25,14,58,21.70
2017,05,25,14,59,21.70
2017,05,25,15,00,21.80
2017,05,25,15,01,21.90
2017,05,25,15,02,21.90
2017,05,25,15,03,21.80
2017,05,25,15,04,21.60
2017,05,25,15,05,21.50
2017,05,25,15,06,21.40
2017,05,25,15,07,21.40
2017,05,25,15,08,21.40
2017,05,25,15,09,21.40
2017,05,25,15,10,21.40
2017,05,25,15,11,21.40
2017,05,25,15,12,21.50
2017,05,25,15,13,21.50
2017,05,25,15,14,21.50
2017,05,25,15,15,21.60
2017,05,25,15,16,21.70
2017,05,25,15,17,21.80
2017,05,25,15,18,21.80
2017,05,25,15,19,21.90
2017,05,25,15,20,21.90
2017,05,25,15,21,21.90
2017,05,25,15,22,22.00
2017,05,25,15,23,22.00
2017,05,25,15,24,22.00
2017,05,25,15,25,22.00
2017,05,25,15,26,22.10
2017,05,25,15,27,22.10
2017,05,25,15,28,22.10
2017,05,25,15,29,22.00
2017,05,25,15,30,22.10
2017,05,25,15,31,22.10
2017,05,25,15,32,22.10
2017,05,25,15,33,22.10
2017,05,25,15,34,22.20
2017,05,25,15,35,22.10
2017,05,25,15,36,22.10
2017,05,25,15,37,21.90
2017,05,25,15,38,21.80
2017,05,25,15,39,21.80
2017,05,25,15,40,21.80
2017,05,25,15,41,21.80
2017,05,25,15,42,21.70
2017,05,25,15,43,21.70
2017,05,25,15,44,21.70
2017,05,25,15,45,21.70
2017,05,25,15,46,21.60
2017,05,25,15,47,21.60
2017,05,25,15,48,21.70
2017,05,25,15,49,21.60
2017,05,25,15,50,21.60
2017,05,25,15,51,21.80
2017,05,25,15,52,21.90
2017,05,25,15,53,22.00
2017,05,25,15,54,22.10
2017,05,25,15,55,22.20
2017,05,25,15,56,22.30
2017,05,25,15,57,22.40
2017,05,25,15,58,22.40
2017,05,25,15,59,22.30
2017,05,25,16,00,22.30
2017,05,25,16,01,22.40
2017,05,25,16,02,22.40
2017,05,25,16,03,22.40
2017,05,25,16,04,22.40
2017,05,25,16,05,22.40
2017,05,25,16,06,22.40
2017,05,25,16,07,22.40
2017,05,25,16,08,22.40
2017,05,25,16,09,22.50
2017,05,25,16,10,22.60
2017,05,25,16,11,22.60
2017,05,25,16,12,22.60
2017,05,25,16,13,22.60
2017,05,25,16,14,22.60
2017,05,25,16,15,22.70
2017,05,25,16,16,22.80
2017,05,25,16,17,22.90
2017,05,25,16,18,22.80
2017,05,25,16,19,22.80
2017,05,25,16,20,22.80
2017,05,25,16,21,22.80
2017,05,25,16,22,22.70
2017,05,25,16,23,22.70
2017,05,25,16,24,22.60
2017,05,25,16,25,22.50
2017,05,25,16,26,22.50
2017,05,25,16,27,22.40
2017,05,25,16,28,22.40
2017,05,25,16,29,22.30
2017,05,25,16,30,22.30
2017,05,25,16,31,22.30
2017,05,25,16,32,22.30
2017,05,25,16,33,22.40
2017,05,25,16,34,22.30
2017,05,25,16,35,22.30
2017,05,25,16,36,22.40
2017,05,25,16,37,22.50
2017,05,25,16,38,22.60
2017,05,25,16,39,22.60
2017,05,25,16,40,22.60
2017,05,25,16,41,22.60
2017,05,25,16,42,22.60
2017,05,25,16,43,22.70
2017,05,25,16,44,22.70
2017,05,25,16,45,22.70
2017,05,25,16,46,22.60
2017,05,25,16,47,22.60
2017,05,25,16,48,22.50
2017,05,25,16,49,22.50
2017,05,25,16,50,22.60
2017,05,25,16,51,22.60
2017,05,25,16,52,22.50
2017,05,25,16,53,22.40
2017,05,25,16,54,22.30
2017,05,25,16,55,22.30
2017,05,25,16,56,22.30
2017,05,25,16,57,22.30
2017,05,25,16,58,22.30
2017,05,25,16,59,22.40
2017,05,25,17,00,22.40
2017,05,25,17,01,22.50
2017,05,25,17,02,22.50
2017,05,25,17,03,22.60
2017,05,25,17,04,22.70
2017,05,25,17,05,22.70
2017,05,25,17,06,22.70
2017,05,25,17,07,22.70
2017,05,25,17,08,22.70
2017,05,25,17,09,22.70
2017,05,25,17,10,22.70
2017,05,25,17,11,22.70
2017,05,25,17,12,22.70
2017,05,25,17,13,22.80
2017,05,25,17,14,22.80
2017,05,25,17,15,22.80
2017,05,25,17,16,22.80
2017,05,25,17,17,22.80
2017,05,25,17,18,22.70
2017,05,25,17,19,22.70
2017,05,25,17,20,22.70
2017,05,25,17,21,22.70
2017,05,25,17,22,22.70
2017,05,25,17,23,22.70
2017,05,25,17,24,22.60